Simultaneous Nadir Overpasses (SNOs) Predictions

Prediction of SNOs between AQUA and GOES-15 Satellite Orbit:

Table of predicted SNOs for the next 14.0 days since TLE Epoch: 5/24/2017
Index Date Time (AQUA) AQUA Lat,Lon GOES-15 Lat,Lon Distance(km) Time Diff (sec)
1 05/24/2017 22:41:05 -0.39,-136.35 -0.03,-134.79 178.41 80
2 05/26/2017 22:28:54 0.27,-133.40 -0.03,-134.69 147.88 80
3 05/27/2017 10:50:08 0.85,-138.55 0.01,-134.61 447.78 80
4 05/28/2017 22:16:42 0.88,-130.44 -0.03,-134.60 473.65 80
5 05/29/2017 10:37:57 0.24,-135.59 0.02,-134.51 122.14 80
6 05/31/2017 10:25:45 -0.38,-132.63 0.02,-134.41 203.33 80
7 05/31/2017 22:47:08 -0.73,-137.82 -0.01,-134.44 384.05 80
8 06/02/2017 22:34:56 -0.11,-134.86 -0.01,-134.34 58.74 80
9 06/04/2017 22:22:43 0.46,-131.89 -0.01,-134.24 266.20 80
10 06/05/2017 10:43:59 0.59,-137.06 -0.00,-134.16 329.32 80
11 06/07/2017 10:31:46 0.02,-134.09 -0.00,-134.05 5.20 80




NCC Satellite Simultaneous Nadir Overpasses (SNOs) Prediction Service
